Location: La Tine
(46.4708°N, 7.0525°E)
Time: 06:24:31
(UTC+00:00)

Cosmos 1943 - Pass Details

Date: 18 September 2020
Orbit: 833 x 850 km, 71.0° (Epoch: 23 October)

Event Time Altitude Azimuth Distance (km) Brightness Sun altitude
Rises 18:01:44 0° 334° (NNW) 3,400 6.9 -5.1°
Reaches altitude 10° 18:04:12 10° 338° (NNW) 2,464 6.1 -5.5°
Maximum altitude 18:09:50 67° 61° (ENE) 912 3.2 -6.5°
Drops below altitude 10° 18:15:28 10° 144° (SE) 2,460 5.2 -7.5°
Sets 18:17:55 0° 147° (SSE) 3,394 5.9 -7.9°
